Погода в Усть-Курдюме

Россия / Саратовская область     51°38′42″N   46°12′21″E
темп.,
°C
ветер,
м/с
пор.,
м/с
влажн.,
%
обл.,
%
осадки,
мм/ч
давл.,
гПа
погр.,
м
6 мая, чт
чт601:00+8з22690 0.0 101718
04:00+7з12710 0.0 101810
07:00+9ююз12675 0.0 101873
10:00+15ююз45490 0.0 1019744
13:00+17ююз55405 0.0 10181551
16:00+18ююз5638100 0.0 10171657
19:00+16ю4748100 0.0 1017212
22:00+13ю3555100 0.0 101773
7 мая, пт
пт701:00+11ю3361100 0.0 101740
04:00+10ююв3566100 0.0 101776
07:00+11ююв31064100 0.0 1017276
10:00+14ю4954100 0.0 1017406
13:00+18ююз6841100 0.0 10161027
16:00+19ююз5642100 0.0 10161399
19:00+15зсз5972100 0.3 1017412
22:00+12ю0489100 1.6 1018208
8 мая, сб
сб801:00+12ююз1186100 0.2 101810
04:00+10вюв11895 0.2 101810
07:00+12вюв11825 0.0 101892
10:00+17ю35550 0.0 1017640
13:00+21ююз6839100 0.0 10161874
16:00+22ююз683799 0.0 10152075
19:00+20ю494946 0.0 1014347
22:00+16ююв3761100 0.0 1014143
9 мая, вс
вс901:00+17ююв5145095 0.0 1013438
04:00+14ююв41057100 0.0 1012245
07:00+14юв396695 0.1 1012311
10:00+18ю4853100 0.2 1013640
13:00+21ююз5840100 0.0 10131383
16:00+22ю4835100 0.0 10132287
19:00+19с2251100 0.0 101314
22:00+16св2260100 0.0 101324
10 мая, пн
пн1001:00+16ссв3360100 0.0 101457
04:00+15св3467100 0.0 101577
07:00+15ссв1269100 0.0 101756
10:00+18всв4661100 0.0 1019428
13:00+22св6749100 0.0 10191042
16:00+24всв7839100 0.0 10191932
19:00+22св7115449 0.0 1020425
22:00+17св8157435 0.0 1022432